This is the latest recevied weather packets stored in our database for station/object WA6MHA-11. If no packets are shown the sender has not sent any weather packets the latest 10 day(s).
| Time | Temp. | Humidity | Pressure | Rain* | Wind** | Luminosity | Snow |
|---|---|---|---|---|---|---|---|
| 1777432389 | 17.78° C | 34% | 1017.4 hPa | 0 mm | - | - | - |
| 1777432147 | 18.33° C | 33% | 1017.4 hPa | 0 mm | - | - | - |
| 1777431910 | 18.33° C | 33% | 1017.4 hPa | 0 mm | - | - | - |
| 1777431664 | 18.33° C | 32% | 1017.3 hPa | 0 mm | - | - | - |
| 1777431423 | 18.89° C | 32% | 1017.3 hPa | 0 mm | - | - | - |
| 1777430941 | 18.89° C | 31% | 1017.1 hPa | 0 mm | - | - | - |
| 1777430699 | 19.44° C | 31% | 1017.3 hPa | 0 mm | - | - | - |
| 1777430217 | 19.44° C | 30% | 1017.2 hPa | 0 mm | - | - | - |
| 1777429735 | 20° C | 29% | 1017.3 hPa | 0 mm | - | - | - |
| 1777429532 | 20° C | 29% | 1017.2 hPa | 0 mm | - | - | - |
| 1777429493 | 20° C | 29% | 1017.2 hPa | 0 mm | - | - | - |
| 1777429251 | 20.56° C | 29% | 1017.1 hPa | 0 mm | - | - | - |
| 1777429010 | 21.11° C | 28% | 1017 hPa | 0 mm | - | - | - |
| 1777428771 | 21.11° C | 28% | 1017 hPa | 0 mm | - | - | - |
| 1777428528 | 21.67° C | 28% | 1017 hPa | 0 mm | - | - | - |
| 1777428046 | 22.22° C | 27% | 1016.9 hPa | 0 mm | - | - | - |
| 1777427080 | 22.78° C | 26% | 1016.9 hPa | 0 mm | - | - | - |
| 1777426839 | 22.78° C | 25% | 1016.7 hPa | 0 mm | - | - | - |
| 1777426356 | 22.78° C | 24% | 1016.7 hPa | 0 mm | - | - | - |
| 1777425874 | 22.78° C | 24% | 1016.8 hPa | 0 mm | - | - | - |
| 1777425633 | 22.22° C | 24% | 1016.9 hPa | 0 mm | - | - | - |
| 1777425391 | 22.78° C | 24% | 1016.8 hPa | 0 mm | - | - | - |
| 1777425150 | 23.89° C | 23% | 1016.8 hPa | 0 mm | - | - | - |
| 1777424911 | 24.44° C | 23% | 1016.9 hPa | 0 mm | - | - | - |
| 1777424426 | 24.44° C | 22% | 1016.9 hPa | 0 mm | - | - | - |
* Rain since midnight (hover to see other rain measurements)
** Current wind speed in m/s (hover to see current wind gust speed)